Regional Weather Roundup
Issued by NWS Northern Indiana

Home | Current Version | Previous Version | Text Only | Print | Product List | Glossary On
Versions: 1 2 3 4 5 6 7 8 9 10 11 12 13 14 15 16 17 18 19 20 21 22 23 24 25 26 27 28 29 30 31 32 33 34 35 36 37 38 39 40 41 42 43 44 45 46 47 48 49 50
000
ASUS43 KIWX 011710
RWRIWX

KIWX WEATHER ROUNDUP
NATIONAL WEATHER SERVICE NORTHERN INDIANA
100 PM EDT WED JUL 01 2015

NOTE: "FAIR" INDICATES FEW OR NO CLOUDS BELOW 12,000 FEET WITH NO
SIGNIFICANT WEATHER AND/OR OBSTRUCTIONS TO VISIBILITY.

* THESE STATIONS ARE NOT UNDER NWS QUALITY CONTROL. THEY ALSO MAY NOT
  REPORT WEATHER SUCH AS PRECIPITATION OR FOG.

INZ001>027-011800-
NORTHERN INDIANA

CITY           SKY/WX    TMP DP  RH WIND       PRES   REMARKS
GARY*          PTSUNNY   63  55  77 NE14      29.99R
VALPARAISO     MOSUNNY   68  55  63 N7        29.98R
MICHIGAN CITY* MOSUNNY   63  54  72 NW6       29.99S
LAPORTE*       SUNNY     67  58  70 N8        29.98S
KNOX*          MOSUNNY   68  55  64 N5        29.96S
SOUTH BEND     SUNNY     67  54  63 NW10      29.97F
ELKHART*       MOSUNNY   68  54  60 NW10      29.97S
GOSHEN         MOSUNNY   69  57  65 NW10      29.96S
MONTICELLO*    MOSUNNY   70  61  72 CALM      29.96S
LOGANSPORT*    MOSUNNY   70  55  60 NW5       29.97S
ROCHESTER*     MOSUNNY   73  61  64 N5        29.96F
WARSAW*          N/A     68  57  68 NW6       29.96S
ANGOLA*        SUNNY     70  63  78 N8        29.94F
FORT WAYNE     MOSUNNY   72  59  63 NW8       29.96R
HUNTINGTON*    MOSUNNY   71  60  68 W5        29.95F
PERU/GRISSOM   MOSUNNY   71  61  70 VRB3      29.95S
MARION*        SUNNY     71  59  66 CALM      29.97S

$$
INZ028>050-011800-
CENTRAL INDIANA

CITY           SKY/WX    TMP DP  RH WIND       PRES   REMARKS
LAFAYETTE      PTSUNNY   70  60  70 CALM      29.95S
KOKOMO*        MOSUNNY   73  61  64 NE3       29.96S
MUNCIE*        MOSUNNY   74  60  61 CALM      29.96S
INDIANAPOLIS   CLOUDY    75  60  59 VRB3      29.94S

$$
MIZ043>046-050>051-056>058-064>065-071>073-077>080-011800-
SOUTHWEST LOWER MICHIGAN

CITY           SKY/WX    TMP DP  RH WIND       PRES   REMARKS
BATTLE CREEK   PTSUNNY   66  53  63 NW7       29.96S
BENTON HARBOR  PTSUNNY   60  50  69 VRB6G17   29.99S
COLDWATER*     PTSUNNY   68  56  66 NW7       29.95F
HILLSDALE*     CLOUDY    64  58  82 W9        29.96R
HOLLAND        CLOUDY    62  51  67 NW12      29.98S
GRAND RAPIDS   PTSUNNY   63  50  62 W6        29.95S
KALAMAZOO      PTSUNNY   68  51  54 NW9       29.96S
STURGIS*       PTSUNNY   66  55  68 NW9       29.94F
THREE RIVERS*  PTSUNNY   69  54  58 W8        29.96S

$$
OHZ001>008-015>018-024>025-011800-
NORTHWEST OHIO

CITY           SKY/WX    TMP DP  RH WIND       PRES   REMARKS
DEFIANCE       MOSUNNY   71  58  63 NW12      29.94S
FINDLAY        MOSUNNY   68  58  70 NW6       29.94R
TOLEDO EXPRESS CLOUDY    68  57  68 W8        29.92R
TOLEDO METCALF CLOUDY    72  59  63 W12       29.93R
LIMA           SUNNY     70  58  65 NW14      29.94F

$$
AND FOR LAKE MICHIGAN COASTAL AND OPEN LAKE BUOY OBSERVATIONS

STATION/POSITION TEMP    WIND        PRES    VSBY  WAVE
                 AIR SEA DIR/SP/G                  HT/PER
                 (F)     (DEG/KT/KT) (MB)    (MI)  (FT/S)
CALUMET HARBOR    58      20/  9/ 11   N/A
MICHIGAN CITY     58     350/ 10/ 12   N/A
BURNS HARBOR      58      20/  9/ 10 1015.9S
SAINT JOSEPH      60     340/ 10/ 12   N/A
4 MI NW BRIDGMAN  58 63                N/A           3/ 5
MICHIGAN CITY     58 65   20/ 10/ 14   N/A           3/ 5

$$
&&


USA.gov is the U.S. government's official web portal to all federal, state and local government web resources and services.